K4ZZR Weather Reports


Display with metric or nautical units.
time (UTC)temp
F
wind
direction
speed
MPH
gust
MPH
rain 1hr
in
rain 24hr
in
rain mn
in
humidity
%
barometer
mb
20260904131806 85 215 4.0 7.0 0.00 0.00 0.00 89 1015.7
20260904131302 85 258 3.0 7.0 0.00 0.00 0.00 89 1015.9
20260904130802 85 219 4.0 7.0 0.00 0.00 0.00 89 1015.7
20260904130302 85 234 4.0 8.0 0.00 0.00 0.00 90 1015.6
20260904125757 85 206 2.0 7.0 0.00 0.00 0.00 89 1015.7
20260904125253 84 252 2.0 7.0 0.00 0.00 0.00 90 1015.6
20260904124747 85 239 3.0 7.0 0.00 0.00 0.00 89 1015.4
20260904124244 85 201 3.0 3.0 0.00 0.00 0.00 89 1015.6
20260904123744 84 210 1.0 3.0 0.00 0.00 0.00 91 1015.7
20260904123239 84 235 2.0 5.0 0.00 0.00 0.00 91 1015.6
20260904122734 83 175 0.0 4.0 0.00 0.00 0.00 92 1015.4
20260904122228 83 234 1.0 5.0 0.00 0.00 0.00 93 1015.5
20260904121724 82 219 0.0 4.0 0.00 0.00 0.00 94 1015.4
20260904121219 82 236 2.0 4.0 0.00 0.00 0.00 95 1015.6
20260904120716 81 228 0.0 3.0 0.00 0.00 0.00 96 1015.3
20260904120211 81 222 2.0 3.0 0.00 0.00 0.00 97 1015.4
20260904115706 80 242 2.0 3.0 0.00 0.00 0.00 98 1014.9
20260904115201 80 226 2.0 2.0 0.00 0.00 0.00 99 1015.3
20260904114701 80 269 0.0 2.0 0.00 0.00 0.00 99 1015.2
20260904114155 79 194 0.0 2.0 0.00 0.00 0.00 99 1015.1
20260904113650 78 232 1.0 3.0 0.00 0.00 0.00 99 1014.9
20260904113149 78 230 2.0 3.0 0.00 0.00 0.00 99 1015.0
20260904112645 78 235 1.0 2.0 0.00 0.00 0.00 99 1015.0
20260904112140 78 228 1.0 3.0 0.00 0.00 0.00 99 1014.7
20260904111636 78 225 1.0 2.0 0.00 0.00 0.00 99 1014.9
20260904111131 78 195 0.0 1.0 0.00 0.00 0.00 99 1014.8
20260904110626 77 218 0.0 1.0 0.00 0.00 0.00 99 1014.9
20260904110121 78 246 0.0 1.0 0.00 0.00 0.00 99 1014.8
20260904105620 78 254 0.0 2.0 0.00 0.00 0.00 99 1014.7
20260904105115 78 256 1.0 2.0 0.00 0.00 0.00 99 1014.6
20260904104611 78 224 0.0 2.0 0.00 0.00 0.00 99 1014.5
20260904104107 78 275 2.0 2.0 0.00 0.00 0.00 99 1014.6
20260904103602 78 333 0.0 1.0 0.00 0.00 0.00 99 1014.4
20260904103058 78 252 0.0 1.0 0.00 0.00 0.00 99 1014.5
20260904102554 78 297 0.0 0.0 0.00 0.00 0.00 99 1014.4
20260904102049 78 291 1.0 2.0 0.00 0.00 0.00 99 1014.4
20260904101546 78 308 2.0 2.0 0.00 0.00 0.00 99 1014.5
20260904101041 78 293 1.0 2.0 0.00 0.00 0.00 99 1014.2
20260904100537 78 280 1.0 2.0 0.00 0.00 0.00 99 1014.4
20260904100032 78 269 2.0 2.0 0.00 0.00 0.00 99 1014.2
20260904095526 78 224 0.0 1.0 0.00 0.00 0.00 99 1014.2
20260904095021 78 129 0.0 0.0 0.00 0.00 0.00 99 1014.1
20260904094516 78 129 0.0 1.0 0.00 0.00 0.00 99 1014.1
20260904094011 78 15 0.0 1.0 0.00 0.00 0.00 99 1014.2
20260904093508 78 187 0.0 0.0 0.00 0.00 0.00 99 1014.2
20260904093003 78 185 0.0 1.0 0.00 0.00 0.00 99 1014.2
20260904092459 78 224 0.0 2.0 0.00 0.00 0.00 99 1014.1
20260904091955 78 62 0.0 0.0 0.00 0.00 0.00 99 1014.1
20260904091451 78 37 0.0 0.0 0.00 0.00 0.00 99 1014.1
20260904090950 78 180 0.0 2.0 0.00 0.00 0.00 99 1013.9
20260904090446 78 205 0.0 1.0 0.00 0.00 0.00 99 1013.9
20260904085941 79 201 0.0 2.0 0.00 0.00 0.00 99 1013.7
20260904085437 79 233 1.0 2.0 0.00 0.00 0.00 99 1013.8
20260904084936 79 224 0.0 2.0 0.00 0.00 0.00 99 1013.8
20260904084433 79 220 2.0 3.0 0.00 0.00 0.00 99 1014.0
20260904083928 79 219 2.0 3.0 0.00 0.00 0.00 99 1013.7
20260904083425 79 249 2.0 2.0 0.00 0.00 0.00 99 1013.8
20260904082920 79 227 1.0 3.0 0.00 0.00 0.00 99 1013.7
20260904082420 79 239 1.0 2.0 0.00 0.00 0.00 99 1013.9
20260904081915 79 232 2.0 3.0 0.00 0.00 0.00 99 1013.7
20260904081410 79 229 0.0 2.0 0.00 0.00 0.00 99 1013.7
20260904080906 79 221 1.0 3.0 0.00 0.00 0.00 99 1013.7
20260904080401 79 217 0.0 2.0 0.00 0.00 0.00 99 1013.7
20260904075857 79 245 0.0 2.0 0.00 0.00 0.00 99 1013.8
20260904075353 79 164 0.0 1.0 0.00 0.00 0.00 98 1013.9
20260904074851 79 252 1.0 2.0 0.00 0.00 0.00 98 1013.5
20260904074346 79 219 1.0 2.0 0.00 0.00 0.00 98 1013.6
20260904073842 80 239 1.0 2.0 0.00 0.00 0.00 97 1013.7
20260904073338 80 240 2.0 3.0 0.00 0.00 0.00 97 1013.6
20260904072833 80 260 1.0 3.0 0.00 0.00 0.00 97 1013.7
20260904072333 80 266 1.0 3.0 0.00 0.00 0.00 97 1013.8
20260904071828 80 245 1.0 2.0 0.00 0.00 0.00 98 1013.6
20260904071324 80 250 0.0 2.0 0.00 0.00 0.00 97 1013.5
20260904070819 80 255 0.0 2.0 0.00 0.00 0.00 97 1013.7
20260904070317 80 223 0.0 2.0 0.00 0.00 0.00 96 1013.5
20260904065812 80 255 0.0 2.0 0.00 0.00 0.00 96 1013.7
20260904065309 81 170 1.0 2.0 0.00 0.00 0.00 96 1013.6
20260904064803 80 169 3.0 3.0 0.00 0.00 0.00 96 1013.6
20260904064259 80 139 0.0 2.0 0.00 0.00 0.00 96 1013.8
20260904063755 80 160 2.0 2.0 0.00 0.00 0.00 96 1014.0
20260904063251 80 218 0.0 2.0 0.00 0.00 0.00 96 1013.8
20260904062746 80 161 1.0 2.0 0.00 0.00 0.00 96 1013.9
20260904062242 80 195 0.0 2.0 0.00 0.00 0.00 96 1013.9
20260904061737 80 217 1.0 3.0 0.00 0.00 0.00 96 1014.0
20260904061233 80 201 1.0 2.0 0.00 0.00 0.00 96 1014.0
20260904060730 80 224 0.0 2.0 0.00 0.00 0.00 95 1014.2
20260904060225 81 210 0.0 1.0 0.00 0.00 0.00 95 1014.1
20260904055720 81 210 1.0 2.0 0.00 0.00 0.00 95 1014.3
20260904055215 81 208 0.0 2.0 0.00 0.00 0.00 94 1014.2
20260904054711 81 201 2.0 4.0 0.00 0.00 0.00 94 1014.4
20260904054207 81 199 1.0 4.0 0.00 0.00 0.00 94 1014.6
20260904053701 81 190 1.0 6.0 0.00 0.00 0.00 93 1014.7
20260904053156 81 175 2.0 5.0 0.00 0.00 0.00 93 1014.5
20260904052653 81 168 3.0 5.0 0.00 0.00 0.00 93 1014.3
20260904052148 81 152 1.0 4.0 0.00 0.00 0.00 93 1014.4
20260904051644 81 173 3.0 5.0 0.00 0.00 0.00 94 1014.4
20260904051139 81 246 0.0 2.0 0.00 0.00 0.00 93 1014.5
20260904050635 81 168 0.0 1.0 0.00 0.00 0.00 93 1014.5
20260904050131 81 147 0.0 2.0 0.00 0.00 0.00 92 1014.4
20260904045631 81 172 2.0 2.0 0.00 0.00 0.00 91 1014.7
20260904045125 81 242 1.0 2.0 0.00 0.00 0.00 91 1014.5
20260904044621 81 136 1.0 5.0 0.00 0.00 0.00 90 1014.5
20260904044117 81 146 3.0 4.0 0.00 0.00 0.00 91 1014.4
20260904043614 81 132 3.0 4.0 0.00 0.00 0.00 93 1014.6
20260904043109 81 149 2.0 4.0 0.00 0.00 0.00 94 1014.8
20260904042605 81 140 3.0 4.0 0.00 0.00 0.00 93 1014.6
20260904042100 81 94 3.0 4.0 0.00 0.00 0.00 93 1014.4
20260904041556 81 160 0.0 5.0 0.00 0.00 0.00 94 1014.6
20260904041052 81 127 1.0 6.0 0.00 0.00 0.00 94 1014.9
20260904040552 81 162 4.0 6.0 0.00 0.00 0.00 95 1014.5
20260904040049 81 128 0.0 6.0 0.00 0.56 0.56 95 1014.7
20260904035543 81 106 5.0 13.0 0.00 0.56 0.56 94 1014.9
20260904035043 81 125 2.0 6.0 0.00 0.56 0.56 94 1014.8
20260904034538 81 140 3.0 9.0 0.00 0.56 0.56 95 1015.0
20260904034033 80 114 5.0 9.0 0.00 0.56 0.56 96 1015.3
20260904033529 80 149 3.0 12.0 0.00 0.56 0.56 98 1015.0
20260904033026 80 172 0.0 2.0 0.00 0.56 0.56 98 1014.7
20260904032521 80 54 1.0 2.0 0.00 0.56 0.56 98 1014.8
20260904032020 80 89 1.0 2.0 0.00 0.56 0.56 98 1015.0
20260904031515 80 74 0.0 1.0 0.00 0.56 0.56 98 1014.9
20260904031012 79 89 0.0 0.0 0.00 0.56 0.56 97 1014.7
20260904030507 80 89 0.0 0.0 0.00 0.56 0.56 98 1014.9
20260904030002 80 62 0.0 0.0 0.00 0.56 0.56 97 1014.9
20260904025458 80 50 0.0 1.0 0.00 0.56 0.56 97 1014.8
20260904024958 80 60 0.0 1.0 0.00 0.56 0.56 97 1014.9
20260904024453 80 104 0.0 2.0 0.00 0.56 0.56 97 1014.7
20260904023949 80 89 0.0 1.0 0.00 0.56 0.56 97 1014.8
20260904023445 80 142 0.0 1.0 0.00 0.56 0.56 97 1014.8
20260904022944 80 135 0.0 0.0 0.00 0.56 0.56 97 1015.0
20260904022441 80 187 0.0 2.0 0.00 0.56 0.56 97 1015.1
20260904021937 80 110 0.0 0.0 0.00 0.56 0.56 97 1015.0
20260904021433 80 149 0.0 2.0 0.00 0.56 0.56 97 1015.2
20260904020927 80 169 0.0 2.0 0.00 0.56 0.56 98 1015.1
20260904020422 80 202 0.0 1.0 0.00 0.56 0.56 97 1015.1
20260904015921 80 229 0.0 1.0 0.00 0.56 0.56 97 1015.2
20260904015417 80 239 0.0 1.0 0.00 0.56 0.56 97 1015.0
20260904014915 80 154 0.0 0.0 0.00 0.56 0.56 96 1015.1
20260904014410 80 195 0.0 1.0 0.00 0.56 0.56 96 1015.0
20260904013906 80 119 0.0 0.0 0.00 0.56 0.56 96 1015.0
20260904013401 80 103 0.0 2.0 0.00 0.56 0.56 95 1014.9
20260904012852 80 98 1.0 2.0 0.00 0.56 0.56 95 1014.8
20260904012352 80 162 0.0 2.0 0.00 0.56 0.56 95 1014.8
20260904011851 80 141 0.0 4.0 0.00 0.56 0.56 95 1014.8
20260904011346 80 143 2.0 4.0 0.00 0.56 0.56 95 1014.9
20260904010841 80 132 1.0 4.0 0.00 0.56 0.56 95 1014.7
20260904010338 79 128 2.0 4.0 0.00 0.56 0.56 95 1014.5
20260904005832 79 97 2.0 3.0 0.00 0.56 0.56 96 1014.5
20260904005328 79 100 2.0 4.0 0.00 0.56 0.56 97 1014.4
20260904004823 79 93 3.0 5.0 0.00 0.56 0.56 97 1014.3
20260904004320 79 108 2.0 3.0 0.00 0.56 0.56 97 1014.4
20260904003814 78 153 0.0 2.0 0.00 0.56 0.56 97 1014.4
20260904003311 79 89 0.0 3.0 0.00 0.56 0.56 97 1014.1
20260904002806 78 124 2.0 4.0 0.00 0.56 0.56 97 1014.1
20260904002306 78 106 2.0 4.0 0.00 0.56 0.56 97 1014.2
20260904001801 78 88 1.0 3.0 0.00 0.56 0.56 98 1014.0
20260904001256 78 230 0.0 1.0 0.00 0.56 0.56 98 1014.2
20260904000751 78 43 0.0 3.0 0.00 0.56 0.56 98 1014.2
20260904000245 78 89 0.0 3.0 0.00 0.56 0.56 98 1014.4
20260903235744 78 91 1.0 2.0 0.00 0.56 0.56 99 1014.5
20260903235242 78 104 0.0 4.0 0.00 0.56 0.56 98 1014.2
20260903234740 78 104 2.0 3.0 0.00 0.56 0.56 99 1014.4
20260903234237 78 187 0.0 0.0 0.00 0.56 0.56 98 1014.1
20260903233733 78 118 1.0 3.0 0.00 0.56 0.56 98 1013.9
20260903233229 78 155 1.0 3.0 0.00 0.56 0.56 98 1014.0
20260903232727 78 150 3.0 4.0 0.00 0.56 0.56 98 1013.9
20260903232224 78 212 0.0 2.0 0.00 0.56 0.56 98 1013.6
20260903231722 78 155 3.0 5.0 0.00 0.56 0.56 98 1013.8
20260903231218 78 72 1.0 4.0 0.00 0.56 0.56 98 1014.1
20260903230713 77 124 1.0 4.0 0.00 0.56 0.56 98 1014.1
20260903230208 77 147 3.0 4.0 0.00 0.56 0.56 98 1013.9
20260903225704 77 111 2.0 2.0 0.02 0.56 0.56 98 1014.1
20260903225201 77 103 2.0 2.0 0.05 0.56 0.56 98 1014.1
20260903224656 77 174 2.0 3.0 0.05 0.56 0.56 97 1014.2
20260903224152 77 96 3.0 4.0 0.02 0.55 0.55 97 1014.0
20260903223647 77 156 3.0 3.0 0.02 0.55 0.55 96 1014.1
20260903223145 77 170 2.0 2.0 0.05 0.55 0.55 96 1014.2
20260903222640 77 111 3.0 3.0 0.00 0.54 0.54 95 1014.0
20260903222139 77 138 3.0 5.0 0.00 0.54 0.54 95 1014.1
20260903221635 78 195 2.0 5.0 0.02 0.54 0.54 95 1014.0
20260903221133 78 168 3.0 5.0 0.05 0.54 0.54 93 1014.0
20260903220627 79 149 3.0 4.0 0.02 0.54 0.54 92 1014.0
20260903220127 79 129 0.0 3.0 0.00 0.53 0.53 90 1013.6
20260903215626 79 81 1.0 3.0 0.00 0.53 0.53 89 1013.8
20260903215120 79 176 2.0 2.0 0.00 0.53 0.53 89 1013.5
20260903214619 79 322 0.0 2.0 0.00 0.53 0.53 91 1013.5
20260903214115 78 101 1.0 3.0 0.00 0.53 0.53 90 1013.5
20260903213610 78 209 0.0 4.0 0.00 0.53 0.53 91 1013.9
20260903213105 78 170 7.0 9.0 0.00 0.53 0.53 91 1013.7
20260903212601 80 152 8.0 13.0 0.00 0.53 0.53 89 1013.8
20260903212056 81 209 4.0 8.0 0.00 0.53 0.53 88 1013.5
20260903211551 81 210 3.0 7.0 0.00 0.53 0.53 86 1013.1
20260903211048 81 273 1.0 3.0 0.00 0.53 0.53 86 1012.8
20260903210542 81 171 2.0 8.0 0.00 0.53 0.53 86 1012.9
20260903210039 81 210 5.0 15.0 0.00 0.53 0.53 85 1013.6
20260903205538 83 201 9.0 13.0 0.00 0.53 0.53 84 1013.5
20260903205038 84 155 10.0 12.0 0.00 0.53 0.53 89 1013.2
20260903204534 84 157 3.0 11.0 0.00 0.53 0.53 89 1013.1
20260903204029 85 121 4.0 8.0 0.00 0.53 0.53 88 1013.3
20260903203525 85 146 4.0 13.0 0.00 0.53 0.53 88 1012.9
20260903203024 86 111 3.0 9.0 0.00 0.53 0.53 87 1013.2
20260903202520 86 105 2.0 7.0 0.00 0.53 0.53 86 1013.0
20260903202015 86 101 4.0 7.0 0.00 0.53 0.53 85 1013.0
20260903201510 86 82 3.0 7.0 0.00 0.53 0.53 85 1013.1
20260903201009 86 116 3.0 6.0 0.00 0.53 0.53 85 1013.2
20260903200504 86 160 4.0 6.0 0.00 0.53 0.53 86 1013.3
20260903195959 86 149 5.0 7.0 0.00 0.53 0.53 85 1013.4
20260903195455 86 123 3.0 6.0 0.00 0.53 0.53 86 1013.5
20260903194950 85 109 2.0 10.0 0.00 0.53 0.53 87 1013.7
20260903194445 85 145 5.0 8.0 0.00 0.53 0.53 87 1013.4
20260903193940 85 115 9.0 14.0 0.00 0.53 0.53 87 1013.1
20260903193437 85 121 5.0 7.0 0.00 0.53 0.53 86 1012.8
20260903192931 85 110 2.0 8.0 0.00 0.53 0.53 87 1013.2
20260903192429 85 118 2.0 7.0 0.00 0.53 0.53 87 1013.3
20260903191924 85 112 2.0 8.0 0.00 0.53 0.53 88 1013.3
20260903191420 86 134 3.0 10.0 0.00 0.53 0.53 87 1013.3
20260903190919 85 113 5.0 13.0 0.00 0.53 0.53 86 1013.4
20260903190413 86 144 4.0 10.0 0.00 0.53 0.53 86 1013.5
20260903185913 86 127 5.0 10.0 0.00 0.53 0.53 87 1013.7
20260903185408 86 124 3.0 11.0 0.00 0.53 0.53 86 1013.9
20260903184904 86 73 2.0 6.0 0.00 0.53 0.53 87 1013.8
20260903184401 86 120 7.0 8.0 0.00 0.53 0.53 88 1014.1
20260903183900 86 72 6.0 11.0 0.00 0.53 0.53 89 1014.0
20260903183355 86 88 3.0 9.0 0.00 0.53 0.53 90 1014.0
20260903182855 86 87 3.0 5.0 0.00 0.53 0.53 89 1013.8
20260903182354 86 113 2.0 9.0 0.00 0.53 0.53 89 1013.9
20260903181849 86 93 5.0 6.0 0.00 0.53 0.53 89 1013.8
20260903181343 85 102 5.0 9.0 0.00 0.53 0.53 89 1013.8
20260903180837 86 104 2.0 8.0 0.00 0.53 0.53 89 1014.0
20260903180332 86 56 2.0 11.0 0.00 0.53 0.53 88 1014.1
20260903175831 86 136 2.0 7.0 0.00 0.53 0.53 89 1014.0
20260903175331 85 152 7.0 9.0 0.00 0.53 0.53 89 1014.1
20260903174825 85 137 4.0 10.0 0.00 0.53 0.53 90 1014.0
20260903174321 85 111 5.0 14.0 0.00 0.53 0.53 90 1014.3
20260903173814 85 128 6.0 10.0 0.00 0.53 0.53 89 1014.2
20260903173310 86 128 2.0 12.0 0.00 0.53 0.53 89 1014.4
20260903172806 86 101 6.0 8.0 0.00 0.53 0.53 87 1014.5
20260903172301 87 149 7.0 10.0 0.00 0.53 0.53 85 1014.5
20260903171756 87 83 1.0 7.0 0.00 0.53 0.53 86 1014.7
20260903171252 88 127 1.0 5.0 0.00 0.53 0.53 85 1014.6
20260903170750 87 135 2.0 5.0 0.00 0.53 0.53 85 1014.6
20260903170246 86 63 3.0 8.0 0.00 0.53 0.53 86 1014.7
20260903165744 86 163 8.0 8.0 0.00 0.53 0.53 86 1014.5
20260903165239 86 144 1.0 7.0 0.00 0.53 0.53 87 1014.9
20260903164733 85 120 1.0 8.0 0.00 0.53 0.53 90 1014.8
20260903164230 85 122 3.0 8.0 0.00 0.53 0.53 89 1015.0
20260903163728 86 104 3.0 5.0 0.00 0.53 0.53 88 1015.1
20260903163225 86 97 4.0 5.0 0.00 0.53 0.53 88 1015.1
20260903162721 85 71 2.0 8.0 0.00 0.53 0.53 89 1015.2
20260903162217 87 123 2.0 9.0 0.00 0.53 0.53 88 1015.2
20260903161713 87 101 2.0 8.0 0.00 0.53 0.53 87 1015.3
20260903161208 87 103 5.0 9.0 0.00 0.53 0.53 85 1015.1
20260903160704 88 130 1.0 5.0 0.00 0.53 0.53 85 1015.2
20260903160203 89 126 3.0 5.0 0.00 0.53 0.53 85 1015.0
20260903155702 88 99 0.0 4.0 0.00 0.53 0.53 85 1014.9
20260903155201 88 93 3.0 7.0 0.00 0.53 0.53 84 1015.1
20260903154657 87 157 1.0 6.0 0.00 0.53 0.53 86 1015.3
20260903154153 87 212 1.0 3.0 0.00 0.53 0.53 86 1015.2
20260903153649 88 207 1.0 3.0 0.00 0.53 0.53 85 1015.2
20260903153145 89 100 2.0 3.0 0.00 0.53 0.53 83 1014.9
20260903152640 87 68 0.0 4.0 0.00 0.53 0.53 83 1015.3
20260903152137 88 158 4.0 6.0 0.00 0.53 0.53 81 1015.1
20260903151636 88 145 4.0 9.0 0.00 0.53 0.53 82 1015.3
20260903151131 89 170 2.0 6.0 0.00 0.53 0.53 80 1015.3
20260903150631 88 123 2.0 8.0 0.00 0.53 0.53 81 1015.2
20260903150126 89 154 9.0 9.0 0.00 0.53 0.53 81 1015.2
20260903145626 88 158 4.0 7.0 0.00 0.53 0.53 82 1015.2
20260903145121 87 190 2.0 7.0 0.00 0.53 0.53 83 1015.2
20260903144620 87 189 3.0 7.0 0.00 0.53 0.53 85 1015.2
20260903144116 87 175 1.0 7.0 0.00 0.53 0.53 83 1015.2
20260903143612 86 158 3.0 6.0 0.00 0.53 0.53 86 1015.4
20260903143108 86 233 4.0 5.0 0.00 0.53 0.53 86 1015.1
20260903142603 86 196 1.0 5.0 0.00 0.53 0.53 87 1015.0
20260903142100 87 153 4.0 5.0 0.00 0.53 0.53 85 1015.0
20260903141555 87 217 3.0 7.0 0.00 0.53 0.53 85 1015.0
20260903141050 87 204 2.0 7.0 0.00 0.53 0.53 85 1014.9
20260903140546 87 157 4.0 5.0 0.00 0.53 0.53 85 1015.0
20260903140041 86 196 3.0 5.0 0.00 0.53 0.53 85 1014.8
20260903135536 86 223 0.0 3.0 0.00 0.53 0.53 85 1014.9
20260903135031 86 128 3.0 3.0 0.00 0.53 0.53 86 1015.0
20260903134531 86 286 0.0 4.0 0.00 0.53 0.53 86 1015.0
20260903134027 88 253 1.0 2.0 0.00 0.53 0.53 84 1014.9
20260903133524 87 278 2.0 2.0 0.00 0.53 0.53 85 1015.0
20260903133019 85 347 1.0 2.0 0.00 0.53 0.53 87 1014.7
20260903132514 84 288 2.0 3.0 0.00 0.53 0.53 91 1014.7
20260903132010 84 273 2.0 5.0 0.00 0.53 0.53 87 1014.7